Flag for Congo Weather past 2 weeks in Pointe-Noire, Congo

Now
86 °F

Broken clouds.


Feels Like: 97 °F
Forecast: 77 / 82 °F
Wind: 2 mph from North

Location: Pointe Airport-Noire


UV Index: 3 (Moderate)

Visibility: N/A


Pressure: 29.83 "Hg

Humidity: 75%

Dew point: 77 °F

Location of Pointe-NoireLocation

Historic Weather in Pointe-Noire

°F

Pointe-Noire temperature yesterday

Maximum temperature yesterday: 88 °F (at 12:00 PM)
Minimum temperature yesterday: 75 °F (at 6:00 AM)
Average temperature yesterday: 82 °F

Past Weeks' High & Low Weather Summary

 TemperatureHumidityPressure
High90 °F (Apr 11, 12:00 PM)94% (Apr 12, 3:00 AM)29.92 "Hg (Apr 12, 3:00 AM)
Low75 °F (Apr 14, 4:00 AM)55% (Apr 11, 12:00 PM)29.68 "Hg (Apr 18, 5:00 PM)
Average83 °F79%29.82 "Hg
* Reported Apr 9 1:00 PM — Apr 21 10:00 AM, Pointe-Noire, Weather by CustomWeather, © 2014

Note: Actual official high and low records may vary slightly from our data, if they occured in-between our weather recording intervals... More about our weather records

Advertising

Historic Weather Conditions — Data for Previous 24 hours

 ConditionsComfort  
Time TempWeatherWind HumidityBarometerVisibility
10:00 AM
Apr 21
86 °FBroken clouds.2 mph75%29.83 "HgN/A
9:00 AM84 °FPartly sunny.3 mph79%29.83 "HgN/A
8:00 AM82 °FPartly sunny.3 mph84%29.83 "Hg5 mi
7:00 AM81 °FPartly sunny.3 mph89%29.80 "Hg4 mi
6:00 AM81 °FPassing clouds.2 mph89%29.80 "Hg5 mi
4:00 AM81 °FPassing clouds.1 mph89%29.80 "Hg5 mi
2:00 AM81 °FPassing clouds.2 mph89%29.80 "Hg5 mi
1:00 AM81 °FPassing clouds.3 mph89%29.80 "HgN/A
12:00 AM81 °FPassing clouds.3 mph89%29.83 "HgN/A
11:00 PM
Apr 20
82 °FPassing clouds.3 mph84%29.83 "HgN/A
10:00 PM82 °FPassing clouds.6 mph79%29.83 "HgN/A
9:00 PM82 °FThunderstorms. Passing clouds.5 mph79%29.83 "HgN/A
8:00 PM82 °FThunderstorms. Passing clouds.5 mph79%29.80 "HgN/A
7:00 PM82 °FPassing clouds.5 mph79%29.74 "HgN/A
6:00 PM84 °FPassing clouds.10 mph79%29.74 "HgN/A
5:00 PM84 °FScattered clouds.13 mph84%29.74 "HgN/A
4:00 PM88 °FScattered clouds.15 mph62%29.74 "HgN/A
3:00 PM88 °FScattered clouds.15 mph62%29.77 "HgN/A
2:00 PM86 °FScattered clouds.13 mph75%29.77 "HgN/A
1:00 PM86 °FPassing clouds.14 mph75%29.80 "HgN/A
12:00 PM88 °FPassing clouds.8 mph62%29.80 "HgN/A
11:00 AM86 °FPassing clouds.8 mph66%29.83 "HgN/A
Weather by CustomWeather, © 2014

See weather overview